Location: Tr�vern
(48.0333°N, 4.6000°W)
Time: 08:19:17
(UTC+00:00)

Intercosmos 25 Rocket - Pass Details

Date: 14 July 2020
Orbit: 434 x 2985 km, 82.6° (Epoch: 04 August)

Event Time Altitude Azimuth Distance (km) Brightness Sun altitude
Rises 03:47:41 0° 351° (N) 2,590 7.3 -6.8°
Reaches altitude 10° 03:49:28 10° 353° (N) 1,819 6.5 -6.6°
Maximum altitude 03:53:17 80° 80° (E) 706 4.0 -6.1°
Drops below altitude 10° 03:59:13 10° 169° (S) 2,781 6.6 -5.4°
Sets 04:02:28 0° 170° (S) 4,118 7.5 -5.0°
